Year,Month,Day,Hour,Minute,Value (Times are PST for temperature in C)
2009,05,29,00,00,14.80
2009,05,29,00,01,14.80
2009,05,29,00,02,14.80
2009,05,29,00,03,14.80
2009,05,29,00,04,14.80
2009,05,29,00,05,14.70
2009,05,29,00,06,14.80
2009,05,29,00,07,14.70
2009,05,29,00,08,14.70
2009,05,29,00,09,14.70
2009,05,29,00,10,14.70
2009,05,29,00,11,14.70
2009,05,29,00,12,14.70
2009,05,29,00,13,14.60
2009,05,29,00,14,14.60
2009,05,29,00,15,14.60
2009,05,29,00,16,14.60
2009,05,29,00,17,14.60
2009,05,29,00,18,14.60
2009,05,29,00,19,14.50
2009,05,29,00,20,14.50
2009,05,29,00,21,14.50
2009,05,29,00,22,14.50
2009,05,29,00,23,14.50
2009,05,29,00,24,14.40
2009,05,29,00,25,14.40
2009,05,29,00,26,14.40
2009,05,29,00,27,14.40
2009,05,29,00,28,14.40
2009,05,29,00,29,14.40
2009,05,29,00,30,14.40
2009,05,29,00,31,14.30
2009,05,29,00,32,14.30
2009,05,29,00,33,14.30
2009,05,29,00,34,14.30
2009,05,29,00,35,14.20
2009,05,29,00,36,14.20
2009,05,29,00,37,14.10
2009,05,29,00,38,14.10
2009,05,29,00,39,14.00
2009,05,29,00,40,14.00
2009,05,29,00,41,13.90
2009,05,29,00,42,13.80
2009,05,29,00,43,13.70
2009,05,29,00,44,13.70
2009,05,29,00,45,13.70
2009,05,29,00,46,13.70
2009,05,29,00,47,13.70
2009,05,29,00,48,13.70
2009,05,29,00,49,13.70
2009,05,29,00,50,13.70
2009,05,29,00,51,13.70
2009,05,29,00,52,13.80
2009,05,29,00,53,13.80
2009,05,29,00,54,13.80
2009,05,29,00,55,13.80
2009,05,29,00,56,13.80
2009,05,29,00,57,13.70
2009,05,29,00,58,13.70
2009,05,29,00,59,13.70
2009,05,29,01,00,13.70
2009,05,29,01,01,13.70
2009,05,29,01,02,13.70
2009,05,29,01,03,13.70
2009,05,29,01,04,13.70
2009,05,29,01,05,13.60
2009,05,29,01,06,13.60
2009,05,29,01,07,13.50
2009,05,29,01,08,13.50
2009,05,29,01,09,13.50
2009,05,29,01,10,13.40
2009,05,29,01,11,13.40
2009,05,29,01,12,13.40
2009,05,29,01,13,13.30
2009,05,29,01,14,13.30
2009,05,29,01,15,13.30
2009,05,29,01,16,13.30
2009,05,29,01,17,13.30
2009,05,29,01,18,13.30
2009,05,29,01,19,13.30
2009,05,29,01,20,13.20
2009,05,29,01,21,13.20
2009,05,29,01,22,13.20
2009,05,29,01,23,13.20
2009,05,29,01,24,13.20
2009,05,29,01,25,13.20
2009,05,29,01,26,13.20
2009,05,29,01,27,13.10
2009,05,29,01,28,13.10
2009,05,29,01,29,13.10
2009,05,29,01,30,13.10
2009,05,29,01,31,13.10
2009,05,29,01,32,13.10
2009,05,29,01,33,13.00
2009,05,29,01,34,13.00
2009,05,29,01,35,12.90
2009,05,29,01,36,12.90
2009,05,29,01,37,12.90
2009,05,29,01,38,12.80
2009,05,29,01,39,12.80
2009,05,29,01,40,12.70
2009,05,29,01,41,12.70
2009,05,29,01,42,12.60
2009,05,29,01,43,12.60
2009,05,29,01,44,12.60
2009,05,29,01,45,12.50
2009,05,29,01,46,12.50
2009,05,29,01,47,12.50
2009,05,29,01,48,12.40
2009,05,29,01,49,12.40
2009,05,29,01,50,12.40
2009,05,29,01,51,12.30
2009,05,29,01,52,12.30
2009,05,29,01,53,12.30
2009,05,29,01,54,12.30
2009,05,29,01,55,12.20
2009,05,29,01,56,12.20
2009,05,29,01,57,12.20
2009,05,29,01,58,12.20
2009,05,29,01,59,12.20
2009,05,29,02,00,12.20
2009,05,29,02,01,12.20
2009,05,29,02,02,12.20
2009,05,29,02,03,12.20
2009,05,29,02,04,12.20
2009,05,29,02,05,12.20
2009,05,29,02,06,12.20
2009,05,29,02,07,12.20
2009,05,29,02,08,12.20
2009,05,29,02,09,12.20
2009,05,29,02,10,12.20
2009,05,29,02,11,12.20
2009,05,29,02,12,12.20
2009,05,29,02,13,12.20
2009,05,29,02,14,12.20
2009,05,29,02,15,12.20
2009,05,29,02,16,12.20
2009,05,29,02,17,12.20
2009,05,29,02,18,12.20
2009,05,29,02,19,12.20
2009,05,29,02,20,12.20
2009,05,29,02,21,12.20
2009,05,29,02,22,12.10
2009,05,29,02,23,12.10
2009,05,29,02,24,12.10
2009,05,29,02,25,12.10
2009,05,29,02,26,12.10
2009,05,29,02,27,12.10
2009,05,29,02,28,12.10
2009,05,29,02,29,12.10
2009,05,29,02,30,12.10
2009,05,29,02,31,12.00
2009,05,29,02,32,12.00
2009,05,29,02,33,12.00
2009,05,29,02,34,11.90
2009,05,29,02,35,11.90
2009,05,29,02,36,11.90
2009,05,29,02,37,11.90
2009,05,29,02,38,11.90
2009,05,29,02,39,11.90
2009,05,29,02,40,11.90
2009,05,29,02,41,11.90
2009,05,29,02,42,11.90
2009,05,29,02,43,11.80
2009,05,29,02,44,11.80
2009,05,29,02,45,11.80
2009,05,29,02,46,11.80
2009,05,29,02,47,11.80
2009,05,29,02,48,11.80
2009,05,29,02,49,11.80
2009,05,29,02,50,11.80
2009,05,29,02,51,11.80
2009,05,29,02,52,11.80
2009,05,29,02,53,11.80
2009,05,29,02,54,11.80
2009,05,29,02,55,11.70
2009,05,29,02,56,11.70
2009,05,29,02,57,11.70
2009,05,29,02,58,11.70
2009,05,29,02,59,11.70
2009,05,29,03,00,11.70
2009,05,29,03,01,11.70
2009,05,29,03,02,11.60
2009,05,29,03,03,11.60
2009,05,29,03,04,11.60
2009,05,29,03,05,11.60
2009,05,29,03,06,11.60
2009,05,29,03,07,11.50
2009,05,29,03,08,11.50
2009,05,29,03,09,11.50
2009,05,29,03,10,11.50
2009,05,29,03,11,11.40
2009,05,29,03,12,11.40
2009,05,29,03,13,11.40
2009,05,29,03,14,11.40
2009,05,29,03,15,11.40
2009,05,29,03,16,11.30
2009,05,29,03,17,11.30
2009,05,29,03,18,11.30
2009,05,29,03,19,11.30
2009,05,29,03,20,11.30
2009,05,29,03,21,11.30
2009,05,29,03,22,11.30
2009,05,29,03,23,11.30
2009,05,29,03,24,11.30
2009,05,29,03,25,11.30
2009,05,29,03,26,11.30
2009,05,29,03,27,11.30
2009,05,29,03,28,11.20
2009,05,29,03,29,11.20
2009,05,29,03,30,11.20
2009,05,29,03,31,11.10
2009,05,29,03,32,11.10
2009,05,29,03,33,11.10
2009,05,29,03,34,11.10
2009,05,29,03,35,11.00
2009,05,29,03,36,11.00
2009,05,29,03,37,11.00
2009,05,29,03,38,11.00
2009,05,29,03,39,10.90
2009,05,29,03,40,10.90
2009,05,29,03,41,10.90
2009,05,29,03,42,10.90
2009,05,29,03,43,10.90
2009,05,29,03,44,10.90
2009,05,29,03,45,11.00
2009,05,29,03,46,11.00
2009,05,29,03,47,11.00
2009,05,29,03,48,11.10
2009,05,29,03,49,11.10
2009,05,29,03,50,11.10
2009,05,29,03,51,11.10
2009,05,29,03,52,11.10
2009,05,29,03,53,11.10
2009,05,29,03,54,11.10
2009,05,29,03,55,11.10
2009,05,29,03,56,11.10
2009,05,29,03,57,11.10
2009,05,29,03,58,11.10
2009,05,29,03,59,11.10
2009,05,29,04,00,11.10
2009,05,29,04,01,11.10
2009,05,29,04,02,11.20
2009,05,29,04,03,11.20
2009,05,29,04,04,11.20
2009,05,29,04,05,11.30
2009,05,29,04,06,11.30
2009,05,29,04,07,11.30
2009,05,29,04,08,11.30
2009,05,29,04,09,11.30
2009,05,29,04,10,11.40
2009,05,29,04,11,11.40
2009,05,29,04,12,11.50
2009,05,29,04,13,11.50
2009,05,29,04,14,11.60
2009,05,29,04,15,11.60
2009,05,29,04,16,11.60
2009,05,29,04,17,11.60
2009,05,29,04,18,11.60
2009,05,29,04,19,11.70
2009,05,29,04,20,11.70
2009,05,29,04,21,11.70
2009,05,29,04,22,11.70
2009,05,29,04,23,11.70
2009,05,29,04,24,11.70
2009,05,29,04,25,11.70
2009,05,29,04,26,11.70
2009,05,29,04,27,11.70
2009,05,29,04,28,11.70
2009,05,29,04,29,11.60
2009,05,29,04,30,11.60
2009,05,29,04,31,11.60
2009,05,29,04,32,11.50
2009,05,29,04,33,11.50
2009,05,29,04,34,11.40
2009,05,29,04,35,11.40
2009,05,29,04,36,11.40
2009,05,29,04,37,11.30
2009,05,29,04,38,11.30
2009,05,29,04,39,11.30
2009,05,29,04,40,11.30
2009,05,29,04,41,11.30
2009,05,29,04,42,11.20
2009,05,29,04,43,11.20
2009,05,29,04,44,11.20
2009,05,29,04,45,11.20
2009,05,29,04,46,11.10
2009,05,29,04,47,11.10
2009,05,29,04,48,11.10
2009,05,29,04,49,11.10
2009,05,29,04,50,11.10
2009,05,29,04,51,11.00
2009,05,29,04,52,11.00
2009,05,29,04,53,11.00
2009,05,29,04,54,11.00
2009,05,29,04,55,10.90
2009,05,29,04,56,10.90
2009,05,29,04,57,10.90
2009,05,29,04,58,10.90
2009,05,29,04,59,10.90
2009,05,29,05,00,10.80
2009,05,29,05,01,10.80
2009,05,29,05,02,10.80
2009,05,29,05,03,10.80
2009,05,29,05,04,10.70
2009,05,29,05,05,10.70
2009,05,29,05,06,10.60
2009,05,29,05,07,10.60
2009,05,29,05,08,10.60
2009,05,29,05,09,10.60
2009,05,29,05,10,10.50
2009,05,29,05,11,10.50
2009,05,29,05,12,10.50
2009,05,29,05,13,10.50
2009,05,29,05,14,10.40
2009,05,29,05,15,10.40
2009,05,29,05,16,10.40
2009,05,29,05,17,10.40
2009,05,29,05,18,10.40
2009,05,29,05,19,10.30
2009,05,29,05,20,10.30
2009,05,29,05,21,10.30
2009,05,29,05,22,10.30
2009,05,29,05,23,10.30
2009,05,29,05,24,10.20
2009,05,29,05,25,10.20
2009,05,29,05,26,10.20
2009,05,29,05,27,10.20
2009,05,29,05,28,10.20
2009,05,29,05,29,10.20
2009,05,29,05,30,10.10
2009,05,29,05,31,10.10
2009,05,29,05,32,10.10
2009,05,29,05,33,10.10
2009,05,29,05,34,10.10
2009,05,29,05,35,10.10
2009,05,29,05,36,10.10
2009,05,29,05,37,10.00
2009,05,29,05,38,10.10
2009,05,29,05,39,10.00
2009,05,29,05,40,10.00
2009,05,29,05,41,10.10
2009,05,29,05,42,10.10
2009,05,29,05,43,10.10
2009,05,29,05,44,10.10
2009,05,29,05,45,10.20
2009,05,29,05,46,10.20
2009,05,29,05,47,10.30
2009,05,29,05,48,10.30
2009,05,29,05,49,10.30
2009,05,29,05,50,10.40
2009,05,29,05,51,10.40
2009,05,29,05,52,10.40
2009,05,29,05,53,10.40
2009,05,29,05,54,10.40
2009,05,29,05,55,10.50
2009,05,29,05,56,10.50
2009,05,29,05,57,10.50
2009,05,29,05,58,10.60
2009,05,29,05,59,10.60
2009,05,29,06,00,10.60
2009,05,29,06,01,10.60
2009,05,29,06,02,10.70
2009,05,29,06,03,10.70
2009,05,29,06,04,10.80
2009,05,29,06,05,10.80
2009,05,29,06,06,10.80
2009,05,29,06,07,10.90
2009,05,29,06,08,10.90
2009,05,29,06,09,10.90
2009,05,29,06,10,11.00
2009,05,29,06,11,11.10
2009,05,29,06,12,11.20
2009,05,29,06,13,11.30
2009,05,29,06,14,11.30
2009,05,29,06,15,11.40
2009,05,29,06,16,11.40
2009,05,29,06,17,11.40
2009,05,29,06,18,11.50
2009,05,29,06,19,11.60
2009,05,29,06,20,11.60
2009,05,29,06,21,11.70
2009,05,29,06,22,11.70
2009,05,29,06,23,11.90
2009,05,29,06,24,12.00
2009,05,29,06,25,12.20
2009,05,29,06,26,12.40
2009,05,29,06,27,12.50
2009,05,29,06,28,12.60
2009,05,29,06,29,12.60
2009,05,29,06,30,12.70
2009,05,29,06,31,12.80
2009,05,29,06,32,12.80
2009,05,29,06,33,12.90
2009,05,29,06,34,13.00
2009,05,29,06,35,13.00
2009,05,29,06,36,13.10
2009,05,29,06,37,13.10
2009,05,29,06,38,13.20
2009,05,29,06,39,13.30
2009,05,29,06,40,13.30
2009,05,29,06,41,13.40
2009,05,29,06,42,13.50
2009,05,29,06,43,13.60
2009,05,29,06,44,13.70
2009,05,29,06,45,13.70
2009,05,29,06,46,13.70
2009,05,29,06,47,13.80
2009,05,29,06,48,13.80
2009,05,29,06,49,13.80
2009,05,29,06,50,13.80
2009,05,29,06,51,13.80
2009,05,29,06,52,13.80
2009,05,29,06,53,13.80
2009,05,29,06,54,13.80
2009,05,29,06,55,13.80
2009,05,29,06,56,13.80
2009,05,29,06,57,13.80
2009,05,29,06,58,13.80
2009,05,29,06,59,13.90
2009,05,29,07,00,14.00
2009,05,29,07,01,14.00
2009,05,29,07,02,14.10
2009,05,29,07,03,14.20
2009,05,29,07,04,14.30
2009,05,29,07,05,14.40
2009,05,29,07,06,14.50
2009,05,29,07,07,14.60
2009,05,29,07,08,14.70
2009,05,29,07,09,14.90
2009,05,29,07,10,15.00
2009,05,29,07,11,15.00
2009,05,29,07,12,15.00
2009,05,29,07,13,15.00
2009,05,29,07,14,15.00
2009,05,29,07,15,15.00
2009,05,29,07,16,15.00
2009,05,29,07,17,15.20
2009,05,29,07,18,15.30
2009,05,29,07,19,15.30
2009,05,29,07,20,15.40
2009,05,29,07,21,15.50
2009,05,29,07,22,15.50
2009,05,29,07,23,15.60
2009,05,29,07,24,15.70
2009,05,29,07,25,15.70
2009,05,29,07,26,15.80
2009,05,29,07,27,15.80
2009,05,29,07,28,15.90
2009,05,29,07,29,16.00
2009,05,29,07,30,16.00
2009,05,29,07,31,16.10
2009,05,29,07,32,16.20
2009,05,29,07,33,16.20
2009,05,29,07,34,16.30
2009,05,29,07,35,16.30
2009,05,29,07,36,16.40
2009,05,29,07,37,16.40
2009,05,29,07,38,16.40
2009,05,29,07,39,16.40
2009,05,29,07,40,16.40
2009,05,29,07,41,16.40
2009,05,29,07,42,16.40
2009,05,29,07,43,16.40
2009,05,29,07,44,16.40
2009,05,29,07,45,16.40
2009,05,29,07,46,16.40
2009,05,29,07,47,16.40
2009,05,29,07,48,16.50
2009,05,29,07,49,16.50
2009,05,29,07,50,16.60
2009,05,29,07,51,16.60
2009,05,29,07,52,16.70
2009,05,29,07,53,16.80
2009,05,29,07,54,16.80
2009,05,29,07,55,16.90
2009,05,29,07,56,17.00
2009,05,29,07,57,17.10
2009,05,29,07,58,17.30
2009,05,29,07,59,17.30
2009,05,29,08,00,17.40
2009,05,29,08,01,17.40
2009,05,29,08,02,17.40
2009,05,29,08,03,17.50
2009,05,29,08,04,17.50
2009,05,29,08,05,17.60
2009,05,29,08,06,17.60
2009,05,29,08,07,17.60
2009,05,29,08,08,17.60
2009,05,29,08,09,17.60
2009,05,29,08,10,17.70
2009,05,29,08,11,17.70
2009,05,29,08,12,17.70
2009,05,29,08,13,17.70
2009,05,29,08,14,17.70
2009,05,29,08,15,17.80
2009,05,29,08,16,17.80
2009,05,29,08,17,17.80
2009,05,29,08,18,17.80
2009,05,29,08,19,17.80
2009,05,29,08,20,17.80
2009,05,29,08,21,17.80
2009,05,29,08,22,17.80
2009,05,29,08,23,17.90
2009,05,29,08,24,17.90
2009,05,29,08,25,17.90
2009,05,29,08,26,17.90
2009,05,29,08,27,17.90
2009,05,29,08,28,18.00
2009,05,29,08,29,18.00
2009,05,29,08,30,18.00
2009,05,29,08,31,18.00
2009,05,29,08,32,18.00
2009,05,29,08,33,18.00
2009,05,29,08,34,18.10
2009,05,29,08,35,18.10
2009,05,29,08,36,18.20
2009,05,29,08,37,18.30
2009,05,29,08,38,18.30
2009,05,29,08,39,18.30
2009,05,29,08,40,18.20
2009,05,29,08,41,18.10
2009,05,29,08,42,18.10
2009,05,29,08,43,18.10
2009,05,29,08,44,18.10
2009,05,29,08,45,18.10
2009,05,29,08,46,18.00
2009,05,29,08,47,18.00
2009,05,29,08,48,18.00
2009,05,29,08,49,18.10
2009,05,29,08,50,18.20
2009,05,29,08,51,18.30
2009,05,29,08,52,18.30
2009,05,29,08,53,18.40
2009,05,29,08,54,18.50
2009,05,29,08,55,18.60
2009,05,29,08,56,18.80
2009,05,29,08,57,18.80
2009,05,29,08,58,19.00
2009,05,29,08,59,19.00
2009,05,29,09,00,19.10
2009,05,29,09,01,19.10
2009,05,29,09,02,19.20
2009,05,29,09,03,19.20
2009,05,29,09,04,19.30
2009,05,29,09,05,19.30
2009,05,29,09,06,19.30
2009,05,29,09,07,19.30
2009,05,29,09,08,19.30
2009,05,29,09,09,19.30
2009,05,29,09,10,19.30
2009,05,29,09,11,19.20
2009,05,29,09,12,19.10
2009,05,29,09,13,19.10
2009,05,29,09,14,19.00
2009,05,29,09,15,19.00
2009,05,29,09,16,19.00
2009,05,29,09,17,19.00
2009,05,29,09,18,18.90
2009,05,29,09,19,18.90
2009,05,29,09,20,18.90
2009,05,29,09,21,18.90
2009,05,29,09,22,18.80
2009,05,29,09,23,18.70
2009,05,29,09,24,18.70
2009,05,29,09,25,18.70
2009,05,29,09,26,18.70
2009,05,29,09,27,18.70
2009,05,29,09,28,18.80
2009,05,29,09,29,18.90
2009,05,29,09,30,19.00
2009,05,29,09,31,19.00
2009,05,29,09,32,19.10
2009,05,29,09,33,19.20
2009,05,29,09,34,19.30
2009,05,29,09,35,19.40
2009,05,29,09,36,19.60
2009,05,29,09,37,19.70
2009,05,29,09,38,19.80
2009,05,29,09,39,19.80
2009,05,29,09,40,19.90
2009,05,29,09,41,20.00
2009,05,29,09,42,20.10
2009,05,29,09,43,20.10
2009,05,29,09,44,20.10
2009,05,29,09,45,20.10
2009,05,29,09,46,20.10
2009,05,29,09,47,20.10
2009,05,29,09,48,20.20
2009,05,29,09,49,20.30
2009,05,29,09,50,20.30
2009,05,29,09,51,20.40
2009,05,29,09,52,20.50
2009,05,29,09,53,20.60
2009,05,29,09,54,20.70
2009,05,29,09,55,20.60
2009,05,29,09,56,20.60
2009,05,29,09,57,20.60
2009,05,29,09,58,20.60
2009,05,29,09,59,20.50
2009,05,29,10,00,20.40
2009,05,29,10,01,20.40
2009,05,29,10,02,20.40
2009,05,29,10,03,20.40
2009,05,29,10,04,20.40
2009,05,29,10,05,20.50
2009,05,29,10,06,20.60
2009,05,29,10,07,20.70
2009,05,29,10,08,20.70
2009,05,29,10,09,20.70
2009,05,29,10,10,20.70
2009,05,29,10,11,20.70
2009,05,29,10,12,20.70
2009,05,29,10,13,20.60
2009,05,29,10,14,20.60
2009,05,29,10,15,20.60
2009,05,29,10,16,20.70
2009,05,29,10,17,20.70
2009,05,29,10,18,20.70
2009,05,29,10,19,20.70
2009,05,29,10,20,20.70
2009,05,29,10,21,20.70
2009,05,29,10,22,20.80
2009,05,29,10,23,20.90
2009,05,29,10,24,20.90
2009,05,29,10,25,21.00
2009,05,29,10,26,21.10
2009,05,29,10,27,21.10
2009,05,29,10,28,21.20
2009,05,29,10,29,21.30
2009,05,29,10,30,21.30
2009,05,29,10,31,21.30
2009,05,29,10,32,21.30
2009,05,29,10,33,21.30
2009,05,29,10,34,21.40
2009,05,29,10,35,21.50
2009,05,29,10,36,21.60
2009,05,29,10,37,21.70
2009,05,29,10,38,21.80
2009,05,29,10,39,21.90
2009,05,29,10,40,22.00
2009,05,29,10,41,22.10
2009,05,29,10,42,22.20
2009,05,29,10,43,22.30
2009,05,29,10,44,22.30
2009,05,29,10,45,22.30
2009,05,29,10,46,22.40
2009,05,29,10,47,22.40
2009,05,29,10,48,22.40
2009,05,29,10,49,22.40
2009,05,29,10,50,22.40
2009,05,29,10,51,22.40
2009,05,29,10,52,22.50
2009,05,29,10,53,22.60
2009,05,29,10,54,22.50
2009,05,29,10,55,22.50
2009,05,29,10,56,22.50
2009,05,29,10,57,22.50
2009,05,29,10,58,22.60
2009,05,29,10,59,22.60
2009,05,29,11,00,22.50
2009,05,29,11,01,22.40
2009,05,29,11,02,22.40
2009,05,29,11,03,22.50
2009,05,29,11,04,22.50
2009,05,29,11,05,22.50
2009,05,29,11,06,22.60
2009,05,29,11,07,22.50
2009,05,29,11,08,22.50
2009,05,29,11,09,22.30
2009,05,29,11,10,22.10
2009,05,29,11,11,21.90
2009,05,29,11,12,21.70
2009,05,29,11,13,21.60
2009,05,29,11,14,21.40
2009,05,29,11,15,21.30
2009,05,29,11,16,21.20
2009,05,29,11,17,21.10
2009,05,29,11,18,21.10
2009,05,29,11,19,21.10
2009,05,29,11,20,21.20
2009,05,29,11,21,21.30
2009,05,29,11,22,21.50
2009,05,29,11,23,21.70
2009,05,29,11,24,21.70
2009,05,29,11,25,21.70
2009,05,29,11,26,21.80
2009,05,29,11,27,21.90
2009,05,29,11,28,22.00
2009,05,29,11,29,22.10
2009,05,29,11,30,22.20
2009,05,29,11,31,22.30
2009,05,29,11,32,22.40
2009,05,29,11,33,22.60
2009,05,29,11,34,22.60
2009,05,29,11,35,22.60
2009,05,29,11,36,22.70
2009,05,29,11,37,22.70
2009,05,29,11,38,22.70
2009,05,29,11,39,22.70
2009,05,29,11,40,22.80
2009,05,29,11,41,22.80
2009,05,29,11,42,22.90
2009,05,29,11,43,22.90
2009,05,29,11,44,23.00
2009,05,29,11,45,23.00
2009,05,29,11,46,22.90
2009,05,29,11,47,22.70
2009,05,29,11,48,22.40
2009,05,29,11,49,22.10
2009,05,29,11,50,21.90
2009,05,29,11,51,21.80
2009,05,29,11,52,21.60
2009,05,29,11,53,21.50
2009,05,29,11,54,21.50
2009,05,29,11,55,21.40
2009,05,29,11,56,21.40
2009,05,29,11,57,21.30
2009,05,29,11,58,21.20
2009,05,29,11,59,21.00
2009,05,29,12,00,20.70
2009,05,29,12,01,20.50
2009,05,29,12,02,20.50
2009,05,29,12,03,20.40
2009,05,29,12,04,20.40
2009,05,29,12,05,20.50
2009,05,29,12,06,20.60
2009,05,29,12,07,20.60
2009,05,29,12,08,20.50
2009,05,29,12,09,20.40
2009,05,29,12,10,20.30
2009,05,29,12,11,20.20
2009,05,29,12,12,20.20
2009,05,29,12,13,20.10
2009,05,29,12,14,20.10
2009,05,29,12,15,20.00
2009,05,29,12,16,20.00
2009,05,29,12,17,19.90
2009,05,29,12,18,19.80
2009,05,29,12,19,19.80
2009,05,29,12,20,19.70
2009,05,29,12,21,19.60
2009,05,29,12,22,19.50
2009,05,29,12,23,19.50
2009,05,29,12,24,19.40
2009,05,29,12,25,19.50
2009,05,29,12,26,19.50
2009,05,29,12,27,19.60
2009,05,29,12,28,19.80
2009,05,29,12,29,19.80
2009,05,29,12,30,19.90
2009,05,29,12,31,20.00
2009,05,29,12,32,20.00
2009,05,29,12,33,20.10
2009,05,29,12,34,20.10
2009,05,29,12,35,20.20
2009,05,29,12,36,20.20
2009,05,29,12,37,20.30
2009,05,29,12,38,20.30
2009,05,29,12,39,20.40
2009,05,29,12,40,20.40
2009,05,29,12,41,20.30
2009,05,29,12,42,20.30
2009,05,29,12,43,20.30
2009,05,29,12,44,20.30
2009,05,29,12,45,20.30
2009,05,29,12,46,20.30
2009,05,29,12,47,20.40
2009,05,29,12,48,20.40
2009,05,29,12,49,20.30
2009,05,29,12,50,20.40
2009,05,29,12,51,20.40
2009,05,29,12,52,20.60
2009,05,29,12,53,20.50
2009,05,29,12,54,20.40
2009,05,29,12,55,20.20
2009,05,29,12,56,20.10
2009,05,29,12,57,20.10
2009,05,29,12,58,20.10
2009,05,29,12,59,20.00
2009,05,29,13,00,19.90
2009,05,29,13,01,19.50
2009,05,29,13,02,19.20
2009,05,29,13,03,19.00
2009,05,29,13,04,18.80
2009,05,29,13,05,18.70
2009,05,29,13,06,18.60
2009,05,29,13,07,18.50
2009,05,29,13,08,18.40
2009,05,29,13,09,18.40
2009,05,29,13,10,18.40
2009,05,29,13,11,18.40
2009,05,29,13,12,18.30
2009,05,29,13,13,18.10
2009,05,29,13,14,17.80
2009,05,29,13,15,17.60
2009,05,29,13,16,17.30
2009,05,29,13,17,17.00
2009,05,29,13,18,16.90
2009,05,29,13,19,16.90
2009,05,29,13,20,16.90
2009,05,29,13,21,16.90
2009,05,29,13,22,17.00
2009,05,29,13,23,17.00
2009,05,29,13,24,16.90
2009,05,29,13,25,16.90
2009,05,29,13,26,16.90
2009,05,29,13,27,16.90
2009,05,29,13,28,16.80
2009,05,29,13,29,16.60
2009,05,29,13,30,16.40
2009,05,29,13,31,16.20
2009,05,29,13,32,16.10
2009,05,29,13,33,16.10
2009,05,29,13,34,16.10
2009,05,29,13,35,16.10
2009,05,29,13,36,16.10
2009,05,29,13,37,16.10
2009,05,29,13,38,16.10
2009,05,29,13,39,16.10
2009,05,29,13,40,16.10
2009,05,29,13,41,16.00
2009,05,29,13,42,15.90
2009,05,29,13,43,15.90
2009,05,29,13,44,15.90
2009,05,29,13,45,15.90
2009,05,29,13,46,15.90
2009,05,29,13,47,15.90
2009,05,29,13,48,15.90
2009,05,29,13,49,15.90
2009,05,29,13,50,15.80
2009,05,29,13,51,15.80
2009,05,29,13,52,15.90
2009,05,29,13,53,15.90
2009,05,29,13,54,16.00
2009,05,29,13,55,16.10
2009,05,29,13,56,16.10
2009,05,29,13,57,16.30
2009,05,29,13,58,16.40
2009,05,29,13,59,16.50
2009,05,29,14,00,16.70
2009,05,29,14,01,16.70
2009,05,29,14,02,16.60
2009,05,29,14,03,16.40
2009,05,29,14,04,16.40
2009,05,29,14,05,16.40
2009,05,29,14,06,16.40
2009,05,29,14,07,16.40
2009,05,29,14,08,16.40
2009,05,29,14,09,16.50
2009,05,29,14,10,16.60
2009,05,29,14,11,16.60
2009,05,29,14,12,16.50
2009,05,29,14,13,16.50
2009,05,29,14,14,16.50
2009,05,29,14,15,16.40
2009,05,29,14,16,16.40
2009,05,29,14,17,16.50
2009,05,29,14,18,16.60
2009,05,29,14,19,16.70
2009,05,29,14,20,16.80
2009,05,29,14,21,16.80
2009,05,29,14,22,16.80
2009,05,29,14,23,16.90
2009,05,29,14,24,17.00
2009,05,29,14,25,17.00
2009,05,29,14,26,17.00
2009,05,29,14,27,17.00
2009,05,29,14,28,16.90
2009,05,29,14,29,16.90
2009,05,29,14,30,16.80
2009,05,29,14,31,16.80
2009,05,29,14,32,16.90
2009,05,29,14,33,17.00
2009,05,29,14,34,17.10
2009,05,29,14,35,17.20
2009,05,29,14,36,17.20
2009,05,29,14,37,17.30
2009,05,29,14,38,17.30
2009,05,29,14,39,17.30
2009,05,29,14,40,17.40
2009,05,29,14,41,17.40
2009,05,29,14,42,17.40
2009,05,29,14,43,17.40
2009,05,29,14,44,17.50
2009,05,29,14,45,17.60
2009,05,29,14,46,17.70
2009,05,29,14,47,17.70
2009,05,29,14,48,17.80
2009,05,29,14,49,17.90
2009,05,29,14,50,17.90
2009,05,29,14,51,18.00
2009,05,29,14,52,18.00
2009,05,29,14,53,18.10
2009,05,29,14,54,18.20
2009,05,29,14,55,18.20
2009,05,29,14,56,18.20
2009,05,29,14,57,18.20
2009,05,29,14,58,18.30
2009,05,29,14,59,18.30
2009,05,29,15,00,18.30
2009,05,29,15,01,18.30
2009,05,29,15,02,18.30
2009,05,29,15,03,18.30
2009,05,29,15,04,18.20
2009,05,29,15,05,18.20
2009,05,29,15,06,18.10
2009,05,29,15,07,18.10
2009,05,29,15,08,18.00
2009,05,29,15,09,18.00
2009,05,29,15,10,18.00
2009,05,29,15,11,18.00
2009,05,29,15,12,17.90
2009,05,29,15,13,18.00
2009,05,29,15,14,18.10
2009,05,29,15,15,18.10
2009,05,29,15,16,18.00
2009,05,29,15,17,18.00
2009,05,29,15,18,17.90
2009,05,29,15,19,17.80
2009,05,29,15,20,17.80
2009,05,29,15,21,17.80
2009,05,29,15,22,17.80
2009,05,29,15,23,17.80
2009,05,29,15,24,17.80
2009,05,29,15,25,17.90
2009,05,29,15,26,18.00
2009,05,29,15,27,18.10
2009,05,29,15,28,18.20
2009,05,29,15,29,18.30
2009,05,29,15,30,18.40
2009,05,29,15,31,18.50
2009,05,29,15,32,18.60
2009,05,29,15,33,18.70
2009,05,29,15,34,18.90
2009,05,29,15,35,19.10
2009,05,29,15,36,19.30
2009,05,29,15,37,19.50
2009,05,29,15,38,19.70
2009,05,29,15,39,19.80
2009,05,29,15,40,19.90
2009,05,29,15,41,20.00
2009,05,29,15,42,20.20
2009,05,29,15,43,20.20
2009,05,29,15,44,20.20
2009,05,29,15,45,20.30
2009,05,29,15,46,20.30
2009,05,29,15,47,20.50
2009,05,29,15,48,20.50
2009,05,29,15,49,20.60
2009,05,29,15,50,20.80
2009,05,29,15,51,20.90
2009,05,29,15,52,20.90
2009,05,29,15,53,21.00
2009,05,29,15,54,21.00
2009,05,29,15,55,21.10
2009,05,29,15,56,21.20
2009,05,29,15,57,21.30
2009,05,29,15,58,21.30
2009,05,29,15,59,21.30
2009,05,29,16,00,21.30
2009,05,29,16,01,21.20
2009,05,29,16,02,21.10
2009,05,29,16,03,20.90
2009,05,29,16,04,20.80
2009,05,29,16,05,20.70
2009,05,29,16,06,20.70
2009,05,29,16,07,20.70
2009,05,29,16,08,20.80
2009,05,29,16,09,20.90
2009,05,29,16,10,21.00
2009,05,29,16,11,21.00
2009,05,29,16,12,21.00
2009,05,29,16,13,21.10
2009,05,29,16,14,21.10
2009,05,29,16,15,21.20
2009,05,29,16,16,21.30
2009,05,29,16,17,21.30
2009,05,29,16,18,21.40
2009,05,29,16,19,21.50
2009,05,29,16,20,21.60
2009,05,29,16,21,21.70
2009,05,29,16,22,21.70
2009,05,29,16,23,21.70
2009,05,29,16,24,21.70
2009,05,29,16,25,21.60
2009,05,29,16,26,21.60
2009,05,29,16,27,21.60
2009,05,29,16,28,21.70
2009,05,29,16,29,21.80
2009,05,29,16,30,21.90
2009,05,29,16,31,22.00
2009,05,29,16,32,22.10
2009,05,29,16,33,22.20
2009,05,29,16,34,22.30
2009,05,29,16,35,22.50
2009,05,29,16,36,22.60
2009,05,29,16,37,22.70
2009,05,29,16,38,22.70
2009,05,29,16,39,22.70
2009,05,29,16,40,22.70
2009,05,29,16,41,22.80
2009,05,29,16,42,22.80
2009,05,29,16,43,22.90
2009,05,29,16,44,22.80
2009,05,29,16,45,22.80
2009,05,29,16,46,22.70
2009,05,29,16,47,22.70
2009,05,29,16,48,22.70
2009,05,29,16,49,22.80
2009,05,29,16,50,22.80
2009,05,29,16,51,22.70
2009,05,29,16,52,22.70
2009,05,29,16,53,22.80
2009,05,29,16,54,22.80
2009,05,29,16,55,22.90
2009,05,29,16,56,22.90
2009,05,29,16,57,22.90
2009,05,29,16,58,22.80
2009,05,29,16,59,22.80
2009,05,29,17,00,22.80
2009,05,29,17,01,22.80
2009,05,29,17,02,22.70
2009,05,29,17,03,22.60
2009,05,29,17,04,22.60
2009,05,29,17,05,22.60
2009,05,29,17,06,22.70
2009,05,29,17,07,22.70
2009,05,29,17,08,22.70
2009,05,29,17,09,22.70
2009,05,29,17,10,22.80
2009,05,29,17,11,22.80
2009,05,29,17,12,22.80
2009,05,29,17,13,22.70
2009,05,29,17,14,22.70
2009,05,29,17,15,22.60
2009,05,29,17,16,22.50
2009,05,29,17,17,22.50
2009,05,29,17,18,22.50
2009,05,29,17,19,22.60